CW2654 Weather Reports


time (UTC)temp
C
wind
direction
speed
KPH
gust
KPH
rain 1hr
cm
rain 24hr
cm
rain mn
cm
humidity
%
barometer
mb
20260831014600 18 0 0.0 4.8 0.00 0.00 0.00 68 1016.9
20260831013059 18 0 0.0 9.7 0.00 0.00 0.00 66 1016.8
20260831011602 19 0 0.0 4.8 0.00 0.00 0.00 63 1016.9
20260831010118 19 0 0.0 4.8 0.00 0.00 0.00 62 1017.1
20260831004610 20 0 0.0 3.2 0.00 0.00 0.00 60 1017.2
20260831003059 20 0 0.0 6.4 0.00 0.00 0.00 59 1017.1
20260831001604 20 331 0.0 8.0 0.00 0.00 0.00 60 1017.2
20260831000109 20 238 0.0 6.4 0.00 0.00 0.00 61 1017.3
20260830234624 20 0 0.0 8.0 0.00 0.00 0.00 59 1017.4
20260830233105 20 0 0.0 6.4 0.00 0.00 0.00 60 1017.6
20260830231607 20 0 0.0 4.8 0.00 0.00 0.00 61 1017.6
20260830230105 20 0 0.0 4.8 0.00 0.00 0.00 61 1017.8
20260830224603 20 0 0.0 8.0 0.00 0.00 0.00 61 1018.1
20260830223102 19 0 1.6 6.4 0.00 0.00 0.00 60 1018.6
20260830221608 19 0 1.6 6.4 0.00 0.00 0.00 61 1018.9
20260830220106 19 243 1.6 6.4 0.00 0.00 0.00 62 1019.1
20260830214607 19 0 0.0 3.2 0.00 0.00 0.00 59 1019.0
20260830213115 19 287 1.6 6.4 0.00 0.00 0.00 62 1019.3
20260830211608 19 0 0.0 6.4 0.00 0.00 0.00 62 1019.4
20260830210105 18 0 0.0 6.4 0.00 0.00 0.00 60 1019.6
20260830204559 18 0 0.0 6.4 0.00 0.00 0.00 63 1019.7
20260830203104 18 0 0.0 6.4 0.00 0.00 0.00 68 1019.9
20260830201607 18 229 0.0 6.4 0.00 0.00 0.00 66 1020.1
20260830200107 17 352 0.0 6.4 0.00 0.00 0.00 68 1020.0
20260830194602 17 0 0.0 6.4 0.00 0.00 0.00 66 1020.2
20260830193104 17 0 0.0 8.0 0.00 0.00 0.00 69 1020.4
20260830191603 16 0 0.0 6.4 0.00 0.00 0.00 72 1020.5
20260830184601 15 0 0.0 3.2 0.00 0.00 0.00 74 1020.8
20260830183104 15 250 1.6 8.0 0.00 0.00 0.00 74 1020.8
20260830181602 15 0 0.0 4.8 0.00 0.00 0.00 74 1020.8
20260830174617 14 0 0.0 3.2 0.00 0.00 0.00 83 1020.8
20260830173100 14 0 0.0 4.8 0.00 0.00 0.00 85 1020.8
20260830171602 13 0 0.0 3.2 0.00 0.00 0.00 87 1020.7
20260830170058 13 0 0.0 4.8 0.00 0.00 0.00 90 1020.7
20260830164604 12 0 0.0 4.8 0.00 0.00 0.00 92 1020.6
20260830163057 12 272 0.0 1.6 0.00 0.00 0.00 94 1020.8
20260830161621 11 0 0.0 4.8 0.00 0.00 0.00 96 1020.8
20260830160104 11 0 0.0 1.6 0.00 0.00 0.00 98 1020.8
20260830154600 11 0 0.0 0.0 0.00 0.00 0.00 99 1020.7
20260830153104 10 0 0.0 1.6 0.00 0.00 0.00 99 1020.9
20260830151603 10 0 0.0 0.0 0.00 0.00 0.00 98 1021.1
20260830150120 9 0 0.0 0.0 0.00 0.00 0.00 98 1021.0
20260830144600 9 0 0.0 0.0 0.00 0.00 0.00 97 1021.1
20260830143105 9 0 0.0 0.0 0.00 0.00 0.00 97 1021.2
20260830141602 9 0 0.0 0.0 0.00 0.00 0.00 97 1021.0
20260830140109 9 0 0.0 0.0 0.00 0.00 0.00 97 1021.1
20260830134600 9 0 0.0 0.0 0.00 0.08 0.00 97 1021.0
20260830133103 9 0 0.0 0.0 0.00 0.08 0.00 97 1020.9
20260830131601 9 0 0.0 0.0 0.00 0.08 0.00 97 1020.8
20260830130110 9 0 0.0 0.0 0.00 0.08 0.00 97 1020.6
20260830124600 9 0 0.0 0.0 0.00 0.10 0.00 97 1020.7
20260830123103 8 0 0.0 0.0 0.00 0.10 0.00 97 1020.6
20260830121602 8 0 0.0 3.2 0.00 0.10 0.00 96 1020.6
20260830120103 8 0 0.0 1.6 0.00 0.10 0.00 96 1020.6
20260830114617 9 113 0.0 4.8 0.00 0.10 0.00 96 1020.5
20260830113104 9 0 0.0 0.0 0.00 0.10 0.00 96 1020.5
20260830111604 9 0 0.0 0.0 0.00 0.10 0.00 96 1020.5
20260830104606 10 0 0.0 0.0 0.00 0.10 0.00 97 1020.6
20260830103102 9 0 0.0 6.4 0.00 0.10 0.00 97 1020.6
20260830101605 8 0 0.0 0.0 0.00 0.10 0.00 97 1020.4
20260830100059 8 0 0.0 1.6 0.00 0.10 0.00 96 1020.5
20260830094604 8 0 0.0 3.2 0.00 0.10 0.00 96 1020.5
20260830093101 8 0 0.0 3.2 0.00 0.10 0.00 96 1020.5
20260830091601 8 0 0.0 3.2 0.00 0.10 0.00 95 1020.5
20260830090128 8 0 0.0 4.8 0.00 0.10 0.00 95 1020.6
20260830084602 8 109 0.0 4.8 0.00 0.10 0.00 94 1020.7
20260830083102 8 0 0.0 4.8 0.00 0.10 0.00 94 1020.6
20260830081603 8 0 0.0 1.6 0.00 0.10 0.00 93 1020.6
20260830080104 8 0 0.0 4.8 0.00 0.10 0.00 93 1020.5
20260830074623 8 0 0.0 4.8 0.00 0.10 0.00 93 1020.5
20260830073101 9 101 0.0 3.2 0.00 0.10 0.00 92 1020.5
20260830071602 9 0 1.6 4.8 0.00 0.10 0.00 92 1020.6
20260830070104 10 105 0.0 4.8 0.00 0.10 0.00 91 1020.7
20260830064603 10 0 1.6 6.4 0.00 0.10 0.10 90 1020.5
20260830063059 10 0 0.0 6.4 0.00 0.10 0.10 89 1020.5
20260830061600 11 0 0.0 6.4 0.00 0.10 0.10 88 1020.4
20260830060101 11 0 0.0 3.2 0.00 0.10 0.10 88 1020.5
20260830054622 10 0 0.0 4.8 0.00 0.10 0.10 88 1020.5
20260830053102 10 0 0.0 4.8 0.00 0.10 0.10 88 1020.4
20260830051558 10 117 1.6 8.0 0.00 0.10 0.10 88 1020.4
20260830050109 11 107 0.0 4.8 0.00 0.10 0.10 86 1020.4
20260830044616 11 0 0.0 3.2 0.00 0.10 0.10 85 1020.2
20260830043103 12 107 0.0 4.8 0.00 0.10 0.10 83 1020.2
20260830041700 12 0 0.0 4.8 0.00 0.10 0.10 80 1020.1
20260830040105 13 0 0.0 3.2 0.00 0.10 0.10 80 1020.0
20260830034604 13 242 0.0 9.7 0.00 0.10 0.10 77 1019.7
20260830033103 14 0 0.0 3.2 0.00 0.10 0.10 76 1019.6
20260830031602 15 0 0.0 6.4 0.00 0.10 0.10 73 1019.6
20260830030142 16 0 0.0 6.4 0.00 0.10 0.10 69 1019.5
20260830024600 16 248 0.0 3.2 0.00 0.10 0.10 67 1019.4
20260830023101 16 238 1.6 8.0 0.00 0.10 0.10 67 1019.4
20260830021559 17 0 0.0 8.0 0.00 0.10 0.10 66 1019.2
20260830020108 17 0 0.0 14.5 0.00 0.10 0.10 64 1019.3